Regional Weather Roundup
Issued by NWS

Home | Current Version | Previous Version | Graphics & Text | Print | Product List | Glossary On
Versions: 1 2 3 4 5 6 7 8 9 10 11 12 13 14 15 16 17 18 19 20 21 22 23 24 25 26 27 28 29 30 31 32 33 34 35 36 37 38 39 40 41 42 43 44 45 46 47 48 49 50
000
ASUS43 KDTX 280110
RWRMI
MICHIGAN HOURLY REGIONAL WEATHER ROUNDUP
NATIONAL WEATHER SERVICE DETROIT/PONTIAC MI
ISSUED BY NATIONAL WEATHER SERVICE GRAND RAPIDS MI
900 PM EDT SAT MAY 27 2017

NOTE: "FAIR" INDICATES FEW OR NO CLOUDS BELOW 12,000 FEET WITH NO
SIGNIFICANT WEATHER AND/OR OBSTRUCTION TO VISIBILITY.

MIZ047>049-052>055-059>063-066>070-074>076-081>083-280200-
SOUTHEAST LOWER MICHIGAN

CITY           SKY/WX    TMP DP  RH WIND       PRES   REMARKS
ADRIAN         CLOUDY    67  56  67 S3        29.90R
ALMA           PTCLDY    69  55  60 SW9       29.88R
ANN ARBOR      PTCLDY    66  57  72 SE5       29.88R
BAD AXE        CLEAR     62  51  67 CALM      29.88F
DETROIT CITY   CLEAR     67  56  67 S5        29.87S
DETROIT        MOCLDY    66  54  65 SE6       29.88S
FLINT          CLEAR     70  53  54 S5        29.87R
GROSSE ILE     PTCLDY    62  55  78 S3        29.87S
HILLSDALE      CLOUDY    64  54  68 CALM      29.89R
HOWELL         PTCLDY    68  54  61 S5        29.89R

CITY           SKY/WX    TMP DP  RH WIND       PRES   REMARKS
JACKSON        CLEAR     67  56  67 S3        29.89R
LANSING        MOCLDY    70  55  59 S7        29.88R
MASON          MOCLDY    68  60  77 E6        29.89R
MONROE         CLEAR     64  54  69 SE3       29.86F
MT. CLEMENS    PTCLDY    63  58  84 SE6       29.86S
PONTIAC        MOCLDY    68  56  65 SE6       29.86S
PORT HOPE        N/A     57  51  80 SE6       29.86F
PORT HURON     CLEAR     63  54  72 CALM      29.88S
TRI CITIES     CLEAR     71  56  58 CALM      29.88R
YPSILANTI      CLEAR     68  57  68 SE9       29.87S
$$
MIZ043>046-050>051-056>058-064>065-071>073-077>080-280200-
SOUTHWEST LOWER MICHIGAN

CITY           SKY/WX    TMP DP  RH WIND       PRES   REMARKS
BATTLE CREEK   PTCLDY    70  59  68 SE5       29.88R
BENTON HARBOR  CLEAR     62  52  69 CALM      29.86S
BIG RAPIDS     CLEAR     70  50  49 W3        29.87S
COLDWATER      PTCLDY    66  59  78 CALM      29.89S
HOLLAND        CLOUDY    66  49  54 NW3       29.87F
GRAND RAPIDS   MOCLDY    70  58  65 S5        29.86F
KALAMAZOO      CLEAR     70  58  65 S3        29.87F
MARSHALL       PTCLDY    68  59  73 CALM      29.87F
MOUNT PLEASANT CLEAR     71  52  51 SW5       29.86R
MUSKEGON       LGT RAIN  63  49  60 CALM      29.86F
STURGIS        PTCLDY    68  60  76 E5        29.87R
$$
MIZ016>042-280200-
NORTHERN LOWER MICHIGAN

CITY           SKY/WX    TMP DP  RH WIND       PRES   REMARKS
ALPENA         CLEAR     59  52  77 SE6       29.86S
BEAVER ISLAND  CLEAR     57  51  81 SE3       29.87R
BELLAIRE       CLOUDY    67  54  61 CALM      29.87R
CADILLAC       CLEAR     67  54  63 CALM      29.88R
CHARLEVOIX     CLOUDY    62  51  67 CALM      29.89R
GAYLORD        CLEAR     69  51  52 CALM      29.87R
HOUGHTON LAKE  CLOUDY    68  54  60 S6        29.87R
MANISTEE       CLEAR     67  50  54 SW3       29.85F
OSCODA         CLEAR     59  49  68 SE5       29.87R
PELLSTON       PTCLDY    65  52  62 N3        29.85S
TRAVERSE CITY  CLOUDY    63  52  67 CALM      29.85R
LUDINGTON      CLEAR     62  50  64 CALM      29.85F
$$
MIZ007>008-015-280200-
EASTERN UPPER MICHIGAN

CITY           SKY/WX    TMP DP  RH WIND       PRES   REMARKS
KINROSS        CLOUDY    63  51  65 S8        29.85S
MACKINAC ISLAN PTCLDY    64  51  62 E7        29.85S
NEWBERRY       MOCLDY    62  51  65 S8        29.82S
S. S. MARIE    PTCLDY    67  53  61 S10       29.83S
$$
MIZ004>006-011>014-085-280200-
CENTRAL UPPER MICHIGAN

CITY           SKY/WX    TMP DP  RH WIND       PRES   REMARKS
MANISTIQUE     PTCLDY    51  48  89 SE7       29.85R
ESCANABA       CLOUDY    60  51  72 S6        29.81R
SAWYER-GWINN   PTCLDY    57  55  94 N6        29.85R
$$
MIZ001>003-009>011-084-280200-
WESTERN UPPER MICHIGAN

CITY           SKY/WX    TMP DP  RH WIND       PRES   REMARKS
IRON MOUNTAIN  CLOUDY    72  46  39 W5        29.78R
HOUGHTON       CLOUDY    61  49  64 E5        29.80S
COPPER HARBOR    N/A     58  49  72 SW3       29.80R
IRONWOOD       MOCLDY    67  45  45 S5        29.83R
$$

ABBREVIATIONS USED IN REMARKS
   TC - TEMPERATURE IN CELSIUS
  WCI - WIND CHILL INDEX
   HX - HEAT INDEX
  VSB - VISIBILITY





USA.gov is the U.S. government's official web portal to all federal, state and local government web resources and services.